Погода в Колокше

Россия / Владимирская область     56°03′39″N   40°11′03″E
темп.,
°C
ветер,
м/с
пор.,
м/с
влажн.,
%
обл.,
%
осадки,
мм/ч
давл.,
гПа
погр.,
м
19 мая, ср
ср1900:00+19вюв516685 0.0 1008414
03:00+17вюв414682 0.0 1008334
06:00+18вюв5156868 0.0 1008390
09:00+23юв5125212 0.0 1008871
12:00+26юв613425 0.0 10081604
15:00+26ююв715460 0.0 10082480
18:00+24ююв511582 0.0 10081363
21:00+18юв377813 0.0 1009123
20 мая, чт
чт2000:00+16в358935 0.0 100878
03:00+16ю51393100 3.6 1008766
06:00+15юв41094100 0.2 1008447
09:00+17ююв57715 0.2 1008862
12:00+20ююв5855100 0.0 10071727
15:00+18ююв3767100 0.1 1006892
18:00+18ю586799 0.1 1004797
21:00+14ю3789100 0.2 1005210
21 мая, пт
пт2100:00+12ю39965 0.0 1005302
03:00+11ююз4109784 0.0 1006507
06:00+12ю5986100 0.1 1006887
09:00+11ююз4992100 0.3 1008775
12:00+12зюз3792100 0.3 1010739
15:00+14з477990 0.4 10121009
18:00+16зсз256388 0.1 10131163
21:00+11юз338197 0.1 101647
22 мая, сб
сб2200:00+9юз228348 0.0 101612
03:00+8зюз238694 0.0 101842
06:00+10з237992 0.0 1019101
09:00+16з125423 0.0 1019653
12:00+19з23423 0.0 10191746
15:00+20юз243813 0.0 10192133
18:00+20юз235041 0.0 1018437
21:00+12юз12783 0.0 101921
23 мая, вс
вс2300:00+10ю23900 0.0 101949
03:00+9ююв22931 0.0 101921
06:00+11в268315 0.0 1017158
09:00+17вюв4665100 0.0 1016712
12:00+20вюв4659100 0.0 1013871
15:00+18вюв4883100 0.3 1011451
18:00+18вюв3892100 0.8 1010326
21:00+16св2297100 0.9 100832